Weather in Toktogul

Kyrgyzstan     41°52′18″N   72°56′15″E
temp.,
°C
wind,
m/s
gust,
m/s
humid.,
%
clouds,
%
prec.,
mm/h
press.,
hPa
HPBL,
m
15 april, thu
thu1500:00+12se116645 0.0 101513
03:00+11sse116477 0.0 101512
06:00+10se1163100 0.0 101511
09:00+12ne115195 0.0 1016167
12:00+13nw114516 0.1 1015346
15:00+15wsw113999 0.2 1013402
18:00+17se0142100 0.4 1012311
21:00+14ssw3263100 1.2 101415
16 april, fri
fri1600:00+13ssw2264100 1.9 101513
03:00+12sse016758 0.1 101511
06:00+11ssw11682 0.3 101611
09:00+13nne115741 0.1 1017190
12:00+14nw115452 0.4 1016403
15:00+16w2251100 0.8 1014659
18:00+16wsw114998 1.2 1013371
21:00+15s33532 0.1 101519
17 april, sat
sat1700:00+13s22602 0.1 101615
03:00+12s21622 0.0 101512
06:00+11ssw11622 0.0 101511
09:00+13n11555 0.0 1017229
12:00+14wnw225118 0.1 1016505
15:00+17wnw22419 0.3 1014876
18:00+17sw223910 0.3 1013441
21:00+15s33498 0.0 101420
18 april, sun
sun1800:00+13s335255 0.0 101517
03:00+13s225099 0.0 101513
06:00+12ssw1152100 0.0 101613
09:00+14w1146100 0.0 1017290
12:00+15s4448100 0.3 1017728
15:00+14s225799 0.7 1017537
18:00+11nw7770100 1.9 10201112
21:00+8wnw2379100 4.2 1024512
19 april, mon
mon1900:00+7ese1182100 8.2 1024391
03:00+7nne118499 0.6 1023414
06:00+7w008698 0.7 1022245
09:00+7nw1183100 0.0 1022359
12:00+9wnw2177100 0.0 1019513
15:00+11wsw116794 0.1 1016580
18:00+12w11565 0.2 1013309
21:00+12s116139 0.0 101211